Погода в Тамтачете

Россия / Иркутская область     57°16′26″N   97°43′37″E
темп.,
°C
ветер,
м/с
пор.,
м/с
влажн.,
%
обл.,
%
осадки,
мм/ч
давл.,
гПа
погр.,
м
15 мая, сб
сб1523:00+6з51086100 0.6 1012873
02:00+2з411885 0.6 1015719
05:00+1з411885 0.1 1015695
08:00+3з41171100 0.1 1015783
11:00+6зюз61264100 0.0 10131177
14:00+6зюз71585100 2.5 10111176
17:00+11зюз51470100 0.0 10091218
20:00+10з5138549 0.2 10091004
16 мая, вс
вс1623:00+8сз2892100 0.3 1010306
02:00+4сз278199 0.6 1012378
05:000ссз299237 0.0 1014238
08:00+3ссз357175 0.0 1016489
11:00+6зсз3447100 0.0 1016998
14:00+9зсз2333100 0.0 10141266
17:00+8зсз2335100 0.1 10121260
20:00+7зюз2350100 0.1 1011251
17 мая, пн
пн1723:00+2зсз226758 0.0 101322
02:000зсз22637 0.0 101316
05:00−1ссз22675 0.0 101417
08:00+4ссз23450 0.0 1014340
11:00+8сз36333 0.0 10131786
14:00+11сз46235 0.0 10122394
17:00+12сз46215 0.0 10122696
20:00+10сз363070 0.0 1012394
18 мая, вт
вт1823:00+3зсз114879 0.0 101310
02:00+2всв1154100 0.0 101310
05:00+2в0052100 0.0 101210
08:00+5з1247100 0.0 1011352
11:00+8з234399 0.0 10101395
14:00+9зюз3350100 0.0 10071596
17:00+11з234567 0.1 10061812
20:00+10зсз1344100 0.1 1005239
19 мая, ср
ср1923:00+4с0150100 0.0 100710
02:00+2ссв225184 0.0 100813
05:000св225891 0.0 100832
08:00+4всв344598 0.0 1008305
11:00+9всв333277 0.0 10061626
14:00+11св2226100 0.0 10052580
17:00+11ссв3325100 0.0 10052533
20:00+9ссв3531100 0.0 1007676